Wind_Speed
11 10 11 12 13 13 14 15 16 17 18 19 20 20 21 22 23 25 26 27 28 28 29 29 30 31 32 33 34 35 36 37 37 38 38 38 39 39 40 41 42 42 43 44 44 45 46 47 48 48 49 50 52 53 53 53 53 52 52 52 53 52 52 53 52 52 52 52 51 50 49 49 48 48 48 48 48 48 48 48 49 50 50 51 52
11 11 12 13 14 15 16 17 18 19 20 21 22 22 23 24 25 26 28 29 29 29 30 31 32 33 34 35 36 37 37 38 38 38 38 38 39 40 41 42 43 43 44 45 45 46 47 48 49 50 51 52 53 54 55 56 55 55 55 55 55 55 55 55 54 54 54 54 54 53 52 51 51 50 50 50 50 50 50 49 49 50 50 51 51
12 12 13 14 15 16 17 18 19 20 21 23 24 24 24 25 26 27 29 30 30 31 32 33 35 36 37 38 38 39 39 39 39 38 38 38 39 40 41 41 43 44 44 45 46 47 48 49 50 51 52 53 55 56 57 57 57 57 57 57 57 57 57 57 57 56 56 55 55 55 54 54 53 52 52 52 51 51 51 51 51 51 51 51 51
12 13 14 15 16 17 19 20 21 22 22 23 24 24 24 25 27 29 30 32 32 34 35 37 38 39 40 40 41 41 41 40 40 39 38 39 40 41 41 42 43 43 44 44 45 46 47 48 49 50 52 53 54 56 57 58 59 59 59 59 59 59 59 59 58 58 58 57 56 56 56 55 55 54 53 53 52 52 52 52 52 52 52 52 52
12 13 14 15 17 18 20 21 23 24 24 25 25 26 27 28 30 32 32 33 34 36 38 40 41 42 43 43 43 43 43 42 42 40 40 41 42 42 43 44 45 45 46 46 46 46 47 47 48 49 50 52 53 55 56 58 59 59 60 60 60 60 60 60 60 59 59 58 57 56 56 56 56 55 54 53 53 53 54 53 53 53 53 53 53
13 13 14 16 18 19 21 23 25 26 26 27 28 28 30 31 33 34 34 35 36 38 40 43 44 44 45 46 45 45 45 44 43 42 42 44 44 45 45 46 47 48 49 49 50 50 49 49 49 50 50 51 52 53 55 56 58 58 59 59 60 60 60 60 59 59 59 59 58 57 56 56 56 56 55 54 54 53 54 54 54 54 54 54 54
15 15 16 18 20 21 22 23 25 26 27 28 29 30 32 33 34 35 36 37 39 41 43 44 45 45 45 46 46 46 46 45 44 44 47 48 48 49 49 49 49 50 51 52 52 52 52 52 52 52 51 51 51 52 54 55 56 57 58 58 59 59 58 58 58 57 57 58 58 57 56 56 56 56 56 56 56 55 54 54 54 55 55 55 56
17 17 19 20 21 21 21 23 24 26 27 28 29 31 33 34 35 37 38 40 41 43 44 45 45 44 44 45 45 45 46 46 46 47 49 50 51 52 52 53 53 53 54 55 55 55 55 55 55 55 55 54 53 54 54 55 56 56 56 56 57 57 57 57 57 56 55 55 55 55 55 55 55 55 56 56 57 57 55 53 53 54 55 56 56
19 19 22 22 22 23 22 24 26 27 28 28 30 31 33 34 37 39 41 42 43 44 44 44 43 43 43 44 45 45 46 47 48 49 50 52 53 54 55 55 56 57 57 58 59 59 59 58 59 59 58 58 57 57 57 57 56 56 55 55 55 56 57 57 57 57 56 54 54 53 52 52 53 54 55 56 57 59 58 55 53 53 54 55 56
21 22 24 25 25 26 26 28 29 29 29 29 30 32 34 37 39 41 43 43 43 43 42 41 41 42 43 44 45 46 47 48 50 51 51 53 54 55 55 57 58 58 59 60 60 60 60 61 61 61 61 61 61 61 60 59 58 57 56 56 56 57 57 57 57 57 56 55 54 53 51 50 50 51 53 54 56 58 60 59 56 54 54 54 55
24 26 27 28 30 30 31 33 32 31 31 32 33 34 37 40 42 43 43 43 42 41 40 40 41 42 43 44 46 47 48 50 52 53 53 54 55 56 56 57 58 59 59 60 60 60 61 61 62 62 62 62 63 63 62 62 61 60 59 59 58 58 58 56 56 55 54 54 53 53 53 51 49 49 50 52 54 56 59 60 59 57 55 54 53
28 29 30 32 33 33 34 35 34 33 33 34 35 37 40 43 43 44 44 43 41 40 41 41 41 43 44 45 47 48 50 51 52 53 54 54 55 56 56 57 58 59 59 59 60 60 61 62 62 62 62 63 64 64 64 64 64 63 63 62 60 59 58 56 55 54 53 52 52 53 54 53 50 48 48 50 52 55 57 59 60 59 58 56 54
31 32 33 34 35 36 36 36 35 35 36 37 38 40 43 44 45 46 46 44 42 42 43 43 44 45 47 49 50 51 51 51 51 51 51 51 52 53 54 55 57 58 58 59 60 61 62 62 62 63 64 65 65 65 66 66 66 64 64 64 62 60 58 56 54 53 52 51 51 52 53 53 52 49 48 48 50 52 55 57 59 59 59 58 56
34 33 33 34 36 37 37 37 37 37 38 39 41 43 45 46 47 47 46 44 44 44 45 46 48 49 51 51 51 51 50 49 49 48 48 49 50 51 52 53 54 56 57 59 60 62 63 63 64 65 66 66 67 67 68 68 67 65 63 63 61 59 58 55 53 53 52 51 50 50 51 51 51 49 47 48 49 51 53 55 57 58 58 58 58
33 33 32 35 37 37 37 37 38 39 40 41 43 45 47 48 48 46 45 45 45 45 46 48 50 52 52 51 50 49 48 47 47 47 48 48 49 50 50 51 53 54 56 58 60 62 63 65 65 66 66 67 67 68 67 67 66 64 62 59 57 56 56 55 54 54 53 51 50 48 48 49 49 48 46 46 48 49 51 53 55 56 57 57 57
32 32 34 39 41 39 38 38 39 40 41 43 45 47 48 48 46 45 45 45 46 47 49 51 52 52 51 49 48 47 46 47 47 47 47 47 48 49 50 51 52 54 55 57 59 61 63 64 66 66 66 65 64 63 63 61 59 58 56 54 52 52 53 53 53 53 52 51 50 47 46 45 46 46 45 44 45 47 49 51 53 54 56 56 57
32 33 38 43 43 40 39 39 40 42 43 45 47 48 48 46 45 45 45 46 47 49 51 52 52 50 48 46 45 46 46 46 46 46 46 46 47 48 49 50 52 53 54 55 56 58 60 63 64 65 65 63 61 59 57 55 54 52 51 49 49 49 50 50 50 50 50 49 48 46 43 42 42 43 43 43 43 45 47 50 51 52 53 55 56
33 38 42 43 41 38 38 39 40 42 44 46 48 47 46 45 45 46 46 47 49 51 52 51 50 47 45 44 44 44 45 45 45 45 45 45 46 47 48 49 49 50 51 51 52 53 55 57 60 61 61 59 57 54 52 50 48 47 46 46 46 47 47 47 47 46 46 45 44 43 41 40 40 41 42 42 43 44 45 47 50 50 51 52 54
36 41 42 39 37 37 38 39 41 43 45 47 46 45 44 45 45 46 47 49 51 51 50 48 46 44 43 43 43 43 43 43 43 43 43 44 45 45 46 46 46 46 46 46 46 46 47 49 51 53 53 52 51 50 48 46 45 43 43 43 44 44 44 44 43 42 42 42 41 40 39 38 38 39 40 41 42 43 44 45 47 49 50 51 52
39 40 37 36 36 37 38 40 42 45 46 45 43 43 44 44 45 46 48 49 50 48 46 43 41 41 41 41 41 41 41 41 41 41 42 42 42 43 43 42 42 42 41 41 40 39 40 41 42 43 43 44 45 45 45 44 43 41 40 41 42 42 42 41 41 40 40 40 39 38 38 37 38 38 39 40 42 43 43 44 46 47 48 49 50
38 36 35 35 36 37 39 42 44 45 44 43 42 43 44 44 46 48 49 49 47 44 41 40 39 39 39 39 39 39 39 39 39 40 40 40 40 39 39 39 38 37 37 36 35 35 34 34 35 36 37 39 40 40 41 40 39 39 40 41 41 41 41 41 40 40 40 39 38 37 37 37 37 38 39 40 41 42 43 44 45 46 47 48 49
35 34 35 35 36 39 42 44 44 43 41 42 42 43 44 45 47 49 48 47 44 41 39 38 38 38 38 38 38 37 37 37 38 38 38 38 37 37 36 36 35 35 34 34 33 32 32 31 30 31 33 34 35 35 36 36 37 38 39 40 40 40 40 40 40 40 40 39 39 39 38 38 38 39 40 41 42 42 43 44 45 46 46 47 48
34 34 34 35 39 42 44 44 42 41 41 41 42 43 44 46 48 49 47 43 40 38 37 37 37 38 37 37 36 36 36 36 36 36 36 36 35 35 35 34 34 34 33 32 32 31 30 29 29 29 30 31 32 33 34 36 37 38 39 40 40 40 41 41 41 41 41 42 41 41 41 40 40 41 42 43 43 43 43 44 44 45 46 46 47
34 34 36 38 43 44 44 42 41 41 41 42 43 44 45 47 48 48 45 40 38 37 37 37 37 37 37 37 36 36 36 36 35 35 35 34 34 34 33 33 32 32 32 31 31 30 30 29 29 29 29 30 32 33 35 37 39 40 41 42 42 43 44 44 44 45 45 45 45 44 43 43 43 43 43 44 43 43 43 43 44 44 45 45 46
34 35 39 42 44 44 42 41 40 41 42 42 44 45 47 48 48 46 43 39 38 37 37 37 37 37 37 36 36 36 36 36 35 34 34 33 33 32 32 32 32 32 32 32 31 31 30 30 30 30 30 31 32 34 36 38 39 41 43 44 45 46 47 47 47 48 47 47 46 45 44 44 44 44 44 44 43 42 42 42 43 43 44 44 45
35 38 42 43 44 42 40 40 41 41 42 43 45 46 48 48 47 44 41 39 38 37 37 37 37 37 36 35 35 35 35 35 35 34 34 33 33 33 32 32 32 32 32 32 31 31 30 30 30 31 31 32 33 35 36 38 40 42 44 45 46 47 47 48 48 48 47 47 46 45 44 44 44 44 43 41 40 40 40 40 41 42 42 43 43
38 41 43 43 42 40 40 40 40 41 42 44 46 47 48 47 45 42 39 38 37 37 37 37 37 36 36 35 35 35 35 35 35 34 34 33 33 33 32 32 32 31 31 31 30 30 30 30 30 31 31 32 33 34 35 36 38 39 41 41 42 43 44 45 45 44 44 43 42 42 41 41 40 39 38 38 38 38 38 39 39 40 40 41 42
40 42 43 42 40 39 39 40 40 41 43 45 46 47 47 45 42 40 38 37 36 36 36 36 36 36 36 35 35 35 35 35 34 34 33 33 32 32 31 31 31 30 30 29 29 29 30 30 30 31 31 32 32 32 33 33 34 35 35 35 36 36 36 36 37 37 37 36 36 36 36 36 36 36 36 36 37 37 37 37 37 38 39 40 41
41 42 42 40 39 39 39 40 40 42 43 45 46 47 45 43 40 38 37 36 36 36 36 36 36 36 35 36 35 35 35 35 35 34 33 32 32 31 31 30 30 30 29 29 29 29 29 30 30 31 31 32 32 32 32 33 33 33 33 33 33 33 33 33 33 33 33 33 34 34 34 35 35 35 35 35 36 35 35 35 35 36 38 39 40
41 41 40 39 38 39 39 40 41 42 44 46 46 45 43 40 38 37 36 35 35 36 36 36 36 36 36 36 35 35 35 35 34 34 33 32 32 31 31 30 29 29 29 29 29 29 29 29 30 31 31 32 32 32 33 33 33 33 34 34 33 33 33 33 33 33 33 33 33 34 34 34 34 34 34 34 34 34 34 34 34 36 37 38 39
41 40 39 39 39 39 39 40 42 43 45 46 45 44 42 39 38 36 35 35 35 36 36 36 36 36 36 36 35 35 35 34 34 33 33 32 32 32 31 30 30 29 29 29 28 28 29 29 29 30 30 31 31 32 32 33 33 33 34 34 33 33 33 33 33 33 32 32 32 32 33 33 33 33 33 32 32 32 33 33 34 36 37 38 38
41 39 39 39 39 40 40 41 42 44 45 45 44 43 40 38 37 36 35 35 35 36 36 36 35 35 35 35 35 34 34 34 33 33 33 32 32 32 31 31 30 29 29 29 29 29 29 29 29 29 29 30 30 30 31 32 32 33 34 34 34 34 34 34 33 32 31 30 30 30 30 31 31 32 32 32 32 31 32 33 34 36 37 38 38
40 40 39 39 39 40 40 42 43 44 45 45 43 41 39 38 36 35 35 35 35 35 35 35 35 35 35 35 34 34 34 33 33 33 33 33 32 32 32 31 31 30 30 30 29 30 30 29 30 29 29 29 29 30 31 31 31 32 33 34 34 34 34 34 33 33 32 31 30 29 28 28 28 29 30 31 32 32 32 33 34 35 36 37 37
40 40 39 39 40 40 40 42 43 44 45 44 42 40 38 37 36 35 35 34 35 35 34 35 35 35 35 34 34 34 34 33 33 33 33 33 33 33 33 32 32 31 31 30 30 30 30 30 30 30 30 29 29 30 30 30 31 31 32 33 34 34 34 33 32 32 31 31 30 30 29 28 27 27 28 29 30 32 33 34 35 36 36 37 37
39 39 38 38 39 39 41 42 43 44 43 42 41 39 37 36 35 34 34 34 34 34 34 34 35 34 34 34 34 34 33 33 33 33 33 33 33 33 33 33 32 32 32 31 31 31 31 31 31 31 31 30 29 30 30 30 31 31 32 34 34 34 34 33 32 31 30 30 30 30 30 29 29 28 28 28 29 31 32 33 34 35 36 37 37
38 37 37 38 38 39 41 42 43 43 41 40 39 38 36 35 34 34 34 34 34 34 34 34 34 34 34 34 34 33 33 33 34 33 33 33 33 34 34 33 33 32 32 32 32 31 31 31 31 32 32 30 29 30 31 31 31 31 32 34 34 34 34 33 32 31 30 30 29 30 30 30 30 29 29 29 30 31 32 32 32 32 33 34 35
37 36 37 38 38 40 41 42 43 42 40 39 38 37 36 35 34 33 33 33 33 34 34 34 34 34 34 34 34 34 34 34 34 34 33 33 33 34 34 34 33 32 32 32 32 32 32 32 32 32 32 31 30 30 32 32 32 32 33 34 35 34 34 33 32 32 31 30 29 29 29 30 30 30 29 29 30 31 32 32 32 31 31 32 33
36 36 37 37 39 41 41 42 42 41 39 38 37 36 35 34 33 33 33 33 33 33 33 34 34 34 34 34 34 34 34 34 34 34 34 33 33 34 34 34 34 33 33 33 33 32 32 32 33 33 33 32 30 30 32 33 33 33 34 35 35 34 34 33 32 32 32 31 30 30 30 30 31 30 30 30 29 30 31 32 32 33 33 32 32
36 36 37 38 39 41 41 42 41 40 39 37 36 35 34 33 33 32 32 33 33 32 33 33 33 33 33 33 33 33 33 33 33 33 33 33 34 34 34 34 34 34 34 33 33 33 32 32 33 33 33 33 32 31 32 33 34 33 34 35 35 35 34 33 33 33 33 33 32 31 31 31 31 31 30 30 29 30 31 32 33 34 34 33 32
36 36 37 38 39 40 41 41 40 39 38 36 35 35 34 33 32 32 32 32 31 32 32 32 32 32 32 33 33 33 33 33 33 33 33 33 34 34 34 34 34 34 34 34 34 34 33 32 33 33 33 33 33 32 32 33 34 34 34 35 36 35 34 33 33 34 34 34 33 32 31 31 31 31 31 30 29 30 32 33 34 36 37 36 34
36 36 37 38 39 40 40 40 39 38 36 35 34 33 32 32 31 31 31 31 31 31 31 31 32 32 32 32 32 32 33 33 33 33 33 33 34 34 34 34 34 34 34 34 34 34 34 33 33 33 34 33 34 34 33 33 35 35 35 35 36 35 34 34 34 34 34 34 34 33 32 31 31 31 31 30 29 30 31 33 35 37 38 36 35
36 36 37 38 39 39 39 39 37 36 35 34 32 31 31 31 30 30 30 30 30 31 31 31 31 31 31 32 31 32 32 32 33 33 32 32 33 33 33 34 34 34 34 34 34 34 34 33 32 33 34 34 34 35 34 33 34 34 35 35 35 35 35 35 36 36 35 35 34 34 32 31 31 31 30 30 31 31 31 33 34 34 33 32 34
35 35 36 38 38 38 38 38 36 35 33 32 31 30 30 29 29 29 29 29 30 30 30 31 31 31 31 31 31 31 31 32 32 33 32 32 32 32 33 33 34 34 34 34 33 34 34 33 32 32 32 34 35 35 35 34 33 33 34 35 35 35 35 36 38 38 37 36 35 34 33 31 31 31 30 30 31 31 32 33 32 30 31 34 37
35 35 36 37 37 37 37 36 35 33 32 31 29 28 28 28 28 28 28 28 29 29 30 30 30 30 30 30 30 30 31 31 32 33 33 33 32 32 32 33 34 34 35 34 34 34 34 33 33 32 31 32 34 35 35 35 34 33 34 34 35 35 35 36 38 38 38 37 37 36 34 33 32 32 31 31 31 31 32 33 32 32 35 39 40
34 35 36 36 36 36 35 34 34 32 30 29 28 27 27 27 27 27 27 27 28 28 28 28 29 29 29 29 30 30 31 32 32 33 33 33 33 33 33 33 34 35 35 35 34 34 34 34 34 33 32 31 32 33 34 34 34 34 34 34 35 35 35 36 37 38 38 38 38 37 37 36 35 34 33 32 32 32 32 33 34 35 38 40 40
33 34 35 35 35 34 33 33 32 31 29 28 28 26 26 26 26 26 26 26 27 27 27 27 28 28 29 30 30 30 31 32 32 33 34 34 34 34 33 33 34 35 36 36 35 35 35 35 35 35 34 32 31 31 32 32 33 34 33 33 34 35 36 36 37 37 36 36 37 37 37 37 37 37 36 35 34 33 33 34 35 36 38 40 41
33 34 34 34 33 32 32 31 31 30 29 27 27 26 25 25 25 26 25 26 26 26 26 27 28 28 29 30 31 31 31 32 32 33 33 33 34 34 33 33 34 35 36 36 36 36 36 36 36 36 35 34 33 31 31 32 33 33 33 33 34 35 35 36 37 37 36 36 36 36 37 38 38 38 38 38 37 36 35 35 35 36 38 40 40
33 33 33 33 32 31 30 30 29 29 28 27 27 26 25 24 25 25 25 25 26 26 26 27 28 29 30 31 32 32 32 32 32 32 32 32 32 33 33 33 34 35 36 36 37 37 37 37 38 38 37 37 35 32 31 32 33 33 33 34 34 34 34 34 36 37 38 38 38 37 37 38 38 38 38 38 37 36 35 34 34 35 36 38 39
32 32 32 32 31 30 29 29 28 28 27 26 26 26 25 25 24 25 26 26 26 27 27 28 29 30 31 32 32 32 33 33 32 32 32 31 32 32 32 33 33 34 35 36 37 37 37 38 39 38 38 38 36 34 32 32 32 32 33 33 32 32 31 32 33 35 38 39 40 39 38 38 37 37 37 37 36 36 35 35 34 35 35 37 38
31 32 32 31 30 30 28 28 27 27 26 26 26 26 26 25 24 25 26 26 26 27 28 29 30 31 31 32 32 32 33 33 32 32 32 31 31 32 32 33 34 34 35 36 37 37 38 39 39 39 38 39 38 36 35 34 33 33 34 34 33 32 32 32 32 34 37 38 39 38 37 36 35 34 34 35 35 35 36 36 36 36 37 38 38
31 31 31 31 30 29 28 27 27 26 25 25 25 26 26 25 24 25 26 26 27 28 28 29 31 31 32 33 32 32 33 32 32 33 33 33 33 32 32 33 34 35 35 36 36 37 37 39 41 41 40 39 40 39 39 37 36 35 35 35 36 35 35 35 35 37 38 39 38 37 37 36 35 34 34 33 33 34 35 36 37 37 38 39 39
Wind_Direction
286 290 296 300 301 302 302 302 303 302 301 300 300 300 300 300 301 301 302 303 303 303 302 302 301 301 300 301 300 298 297 297 296 296 296 296 296 295 295 294 294 293 293 292 291 291 290 290 289 289 288 287 287 287 286 286 285 285 284 283 283 282 281 281 280 280 278 277 275 274 273 273 271 270 268 267 266 266 265 264 264 263 263 262 262
286 290 294 296 296 296 296 296 297 296 296 295 294 295 295 296 297 299 300 301 302 302 302 302 301 300 300 300 298 297 296 294 294 294 294 294 293 293 293 293 292 292 291 291 291 290 289 289 288 288 288 287 287 287 286 286 286 285 285 284 283 283 282 281 281 280 280 278 277 275 274 273 272 271 270 269 267 266 265 265 264 263 263 262 261
284 287 288 289 290 290 290 291 292 293 293 293 292 293 293 295 297 299 300 301 302 302 302 302 301 300 300 298 296 295 294 293 292 292 292 292 291 291 291 291 290 290 290 289 289 288 288 287 287 287 286 286 286 286 285 285 285 285 284 284 284 283 283 282 281 281 280 279 279 277 275 274 272 271 270 269 268 267 266 265 264 264 263 262 261
279 283 286 288 290 291 291 291 291 291 290 290 290 291 292 296 299 301 303 304 304 304 304 303 301 300 299 297 296 295 293 292 292 292 293 292 291 291 291 290 290 289 289 288 288 287 287 287 286 286 285 285 285 285 285 284 284 284 283 283 283 283 283 282 282 281 281 280 280 279 277 276 274 272 271 270 269 268 266 265 265 264 263 263 262
275 281 286 289 291 292 292 292 293 293 292 291 292 294 297 300 303 305 306 307 307 306 305 304 303 301 300 298 297 295 294 293 293 294 294 292 292 292 292 291 291 290 289 289 288 288 287 287 286 285 285 285 285 285 285 284 284 284 283 283 283 282 282 282 282 282 281 280 280 280 279 277 276 274 272 270 269 268 267 266 265 264 263 263 262
273 280 283 286 287 289 292 295 298 301 300 299 299 299 300 304 306 307 308 309 309 308 306 304 303 302 301 299 298 297 296 296 295 294 292 291 290 291 290 290 290 290 290 290 289 289 288 287 286 286 285 285 285 285 285 285 285 284 284 284 283 283 282 282 282 282 282 281 280 280 280 278 277 275 273 271 269 267 267 266 265 265 264 263 262
272 279 282 284 287 292 297 301 304 305 302 301 300 300 302 305 307 308 309 310 309 307 305 303 302 301 300 299 298 298 298 298 296 294 292 291 290 290 289 288 287 287 288 288 287 287 287 286 286 285 285 284 285 284 284 285 285 285 285 285 285 284 284 284 284 284 284 282 281 281 280 279 278 276 275 273 270 267 266 266 265 264 264 263 262
270 278 283 287 292 297 301 303 302 300 298 297 298 299 302 304 306 307 309 309 308 306 304 302 301 300 299 298 298 297 297 297 296 294 292 292 292 291 289 288 287 286 285 285 285 286 285 285 286 285 285 285 284 283 283 283 283 284 284 285 285 285 285 285 285 285 285 285 284 283 282 281 280 278 276 274 272 269 266 265 264 264 263 263 262
270 279 285 290 292 294 297 297 297 297 297 297 296 298 299 302 305 307 308 308 306 304 302 301 299 298 297 297 297 296 295 295 294 293 292 292 291 290 290 289 288 287 286 286 286 286 286 287 287 286 286 285 284 283 282 282 282 282 283 283 285 285 285 285 285 286 286 285 285 284 284 283 283 281 279 276 274 271 268 265 264 264 263 262 261
271 280 286 289 289 292 296 297 298 298 297 295 294 296 299 303 305 307 308 307 305 303 301 299 298 297 297 296 296 296 295 293 293 292 291 289 289 288 288 288 287 287 287 287 287 287 287 287 287 286 285 285 284 284 283 281 280 280 280 281 282 282 282 283 285 285 285 284 284 284 283 284 284 283 282 279 276 273 270 267 265 264 263 262 261
270 277 283 288 292 294 296 297 298 297 294 293 294 297 301 305 306 307 308 307 304 301 299 299 298 297 297 297 296 296 295 294 293 292 290 288 287 286 285 285 285 285 285 285 285 285 285 285 285 284 284 283 283 283 283 281 280 279 279 279 279 279 279 281 282 283 283 282 282 283 282 282 283 283 283 281 279 275 272 269 267 265 263 262 261
268 274 281 288 293 295 296 297 295 293 292 292 295 298 302 305 306 308 308 306 303 301 300 299 299 299 298 298 297 296 295 294 293 292 291 289 288 287 286 284 283 283 283 283 283 282 283 283 283 282 282 282 282 281 282 280 279 278 277 277 277 278 278 280 281 282 282 282 282 282 281 280 280 281 282 282 281 278 274 270 268 266 264 262 261
268 274 281 287 292 296 297 295 293 291 291 293 295 300 304 307 308 308 308 305 303 302 301 302 302 301 301 301 300 299 297 296 295 294 293 292 291 290 289 288 286 285 284 283 282 281 281 281 280 280 280 280 280 280 280 279 278 277 276 277 277 277 279 281 282 282 283 282 281 281 279 278 278 279 281 282 282 280 277 273 269 267 265 263 262
270 274 280 288 295 297 296 294 292 292 292 294 298 303 307 308 309 308 306 304 304 304 304 305 305 305 304 304 303 301 300 298 297 296 295 294 293 292 291 291 290 289 287 285 283 282 280 279 279 279 279 278 279 279 278 279 279 278 277 277 278 277 278 280 282 282 282 281 279 277 276 276 276 277 278 280 281 281 279 275 271 268 266 264 263
270 274 281 292 298 298 296 295 294 294 295 298 302 306 308 309 308 306 305 304 305 305 306 307 307 307 306 305 304 303 302 301 299 298 297 296 295 294 294 293 292 291 289 287 286 284 282 280 279 279 279 279 278 278 277 276 277 277 277 278 278 278 278 279 280 281 281 279 276 274 274 274 275 275 276 278 280 281 281 277 273 269 267 265 264
267 273 284 295 299 299 298 297 296 297 299 302 305 307 308 308 306 305 305 306 306 308 308 309 309 308 307 306 304 303 303 301 301 300 299 299 298 297 297 296 295 294 292 291 288 286 284 283 281 280 280 279 278 276 275 275 276 277 278 278 279 279 278 278 278 278 278 276 274 272 272 273 274 275 276 277 279 281 281 278 274 271 268 266 264
266 274 286 294 297 298 299 298 299 300 301 304 306 307 307 306 305 306 307 308 309 310 311 310 309 308 306 305 305 304 303 302 302 302 301 301 300 300 299 298 297 296 295 293 291 289 287 284 282 280 279 278 278 277 276 277 278 279 280 280 280 279 277 276 275 275 274 273 272 271 271 272 274 275 277 278 279 281 281 278 274 271 269 268 266
269 279 288 294 297 299 299 298 299 300 302 305 306 306 305 305 306 308 309 310 311 312 311 309 308 307 306 305 304 304 303 303 303 302 302 302 302 302 301 300 299 298 297 295 294 291 289 287 284 282 279 278 278 279 280 281 283 283 283 282 280 277 275 273 271 270 270 269 269 270 271 273 275 276 278 279 281 282 281 278 273 270 269 268 268
277 285 292 296 299 299 298 299 300 302 304 305 306 305 306 307 308 309 311 312 312 311 310 309 307 306 306 305 305 304 304 303 303 303 304 304 304 304 303 303 302 301 300 299 297 296 293 291 289 287 284 281 281 283 285 288 289 288 285 281 278 275 272 270 268 268 267 268 268 270 272 275 276 277 278 280 282 283 282 278 272 269 269 268 267
286 292 296 299 299 298 299 300 302 304 305 305 305 306 307 308 309 310 312 312 311 310 308 307 306 306 306 306 306 305 304 304 304 305 305 305 306 305 305 305 305 305 304 303 303 302 300 297 296 295 292 289 287 288 291 292 291 287 282 278 274 272 270 269 268 268 269 270 272 274 275 276 277 278 279 280 282 283 282 279 273 269 268 268 267
292 296 298 299 299 299 300 302 304 305 306 305 306 307 308 309 310 311 312 312 311 309 308 307 307 307 307 307 306 305 305 306 306 307 307 307 307 307 308 309 309 309 309 309 309 309 307 305 302 300 298 295 293 293 292 291 287 282 278 275 273 272 272 271 271 272 273 275 277 277 278 278 279 280 281 281 282 282 282 279 274 270 268 268 267
296 298 299 299 299 301 303 305 306 306 305 305 306 308 309 310 311 312 313 312 311 310 309 308 309 309 309 308 308 307 307 308 308 308 308 309 310 311 312 313 314 315 315 315 314 312 311 309 306 302 299 297 295 293 290 285 281 278 276 275 275 275 276 276 277 278 279 280 280 280 281 281 281 281 282 282 282 281 280 278 273 269 267 267 267
299 299 300 300 301 304 306 306 306 305 305 307 308 310 311 312 313 313 313 313 311 310 310 310 311 311 311 310 310 309 309 309 309 308 309 311 312 314 316 318 319 319 319 317 315 313 311 309 307 305 302 298 295 290 286 281 278 277 276 277 278 279 279 280 281 282 283 284 283 283 283 282 280 280 281 280 280 278 277 274 271 268 266 266 266
301 301 302 303 304 306 307 306 305 305 307 309 310 311 312 313 314 314 314 314 312 313 313 312 313 313 313 313 311 311 310 310 309 309 310 312 313 316 318 320 321 321 321 320 319 317 315 312 309 306 303 299 295 291 286 282 279 278 278 279 279 280 281 281 282 283 284 284 284 283 282 280 278 277 277 276 275 274 271 269 267 266 265 265 264
302 301 303 305 305 307 306 305 306 308 309 310 311 313 314 315 315 315 315 315 315 315 314 314 315 315 314 313 312 311 310 309 310 310 311 313 315 318 320 322 324 325 325 325 324 322 319 315 312 308 304 300 296 293 290 287 284 282 282 281 282 282 283 283 283 283 283 282 281 280 278 276 274 274 273 272 270 268 267 265 264 264 264 263 263
302 302 304 306 306 306 305 305 307 309 310 311 312 314 316 316 316 316 317 317 316 316 315 316 316 316 315 313 312 311 310 310 311 312 314 316 318 321 323 325 327 327 328 327 325 323 320 317 314 309 305 302 298 295 292 289 287 286 284 283 283 283 284 283 283 282 281 280 278 276 274 272 270 270 269 268 267 266 265 264 264 264 263 262 262
301 303 305 306 305 304 304 306 308 309 310 313 315 316 317 317 317 317 317 317 316 315 316 316 316 315 314 313 312 312 312 313 314 315 316 319 321 323 325 326 327 327 327 326 324 322 319 317 314 311 309 306 303 300 297 294 292 289 288 286 285 284 283 282 282 281 280 278 276 274 273 271 270 269 269 268 267 267 266 265 265 264 264 263 262
302 304 305 304 303 303 305 307 309 310 313 315 317 317 318 318 317 317 317 316 316 315 316 316 315 315 314 314 313 314 314 315 316 317 319 320 322 324 324 325 326 325 325 324 322 320 317 315 313 311 310 308 307 305 303 300 298 296 294 292 290 289 287 285 284 282 281 279 278 277 275 274 273 272 271 271 270 269 268 267 266 264 264 263 263
303 304 304 303 303 304 306 308 310 313 315 317 318 318 318 318 317 317 317 316 316 315 315 315 315 315 315 315 315 316 316 317 318 319 320 321 322 323 323 324 324 323 323 322 320 318 316 314 312 311 310 309 308 307 305 303 302 300 298 297 296 295 293 291 288 285 283 282 281 280 279 278 277 276 275 274 273 272 270 268 266 264 264 263 263
303 304 303 303 303 306 309 311 313 316 317 318 319 318 318 317 317 317 317 316 315 315 315 316 316 316 316 316 316 317 317 318 319 319 320 320 321 321 321 321 321 321 321 319 318 316 314 313 311 309 309 308 307 307 306 305 303 302 300 299 298 297 295 293 291 289 287 286 285 284 283 282 281 280 279 278 276 275 273 270 267 264 263 263 263
305 304 303 304 306 308 311 313 315 317 318 319 319 318 318 317 317 317 316 315 315 315 316 316 317 317 317 317 317 318 318 318 319 319 319 319 319 319 319 319 319 319 318 317 316 315 313 312 310 309 308 307 307 306 305 305 304 303 301 301 300 298 296 293 292 291 290 289 289 288 288 287 286 285 283 281 279 277 274 271 268 266 264 263 263
306 305 304 306 308 310 313 315 317 318 319 319 319 318 318 318 318 317 316 316 316 316 316 317 317 317 317 317 317 318 318 318 318 318 318 318 318 317 317 317 317 317 316 316 315 314 313 311 310 309 308 307 307 306 305 304 304 303 302 302 301 300 298 297 297 296 295 294 292 290 289 288 287 287 286 284 281 278 274 270 268 266 265 264 264
307 305 306 307 310 312 314 316 318 319 319 319 319 318 318 318 318 317 317 316 315 315 316 316 317 317 317 317 318 318 318 318 318 318 318 318 317 316 315 315 316 316 315 314 313 313 312 311 310 309 308 308 307 306 304 304 304 303 302 301 300 300 300 300 301 301 300 298 296 292 289 286 284 283 282 281 280 277 274 271 268 267 266 265 265
307 305 306 308 310 313 315 316 318 319 319 319 319 318 318 318 317 317 316 315 315 315 316 316 316 316 317 317 318 318 318 318 318 318 318 318 317 316 315 315 315 315 313 313 312 312 311 310 309 309 308 308 307 305 304 303 303 302 301 300 299 299 301 301 302 302 301 300 298 295 292 289 285 282 278 275 274 272 271 270 269 269 268 268 268
306 305 306 309 311 313 315 317 319 319 319 319 318 318 318 317 317 317 316 315 315 315 315 316 316 317 317 318 318 318 318 318 318 318 317 317 316 315 314 314 314 314 313 312 311 311 310 310 309 308 307 307 306 304 303 302 301 300 299 298 298 299 301 302 302 301 300 299 297 295 294 292 289 285 281 277 274 271 269 268 267 267 267 267 268
305 305 307 309 312 314 316 318 319 320 320 319 318 318 318 317 317 316 315 315 314 315 316 316 316 317 317 318 318 317 317 317 317 317 317 316 316 314 314 313 314 313 312 311 311 310 310 309 308 307 307 306 306 303 301 300 299 298 297 296 297 298 299 300 300 300 299 297 296 294 293 291 289 286 284 281 279 277 275 272 270 268 267 266 266
305 306 309 311 313 315 318 319 320 320 319 318 318 318 318 317 317 315 315 315 315 315 316 316 317 317 317 317 317 317 317 317 317 317 317 316 315 314 314 313 313 313 312 311 310 310 310 308 307 307 306 306 305 303 300 299 297 296 295 295 295 296 297 297 298 297 296 295 294 292 291 289 287 286 285 283 282 281 280 279 277 274 271 269 267
307 308 311 312 314 317 319 320 320 320 319 319 319 318 318 317 316 316 315 315 315 315 316 316 316 316 317 317 317 317 317 317 317 317 317 317 316 315 314 314 314 313 312 311 310 310 310 309 308 307 306 306 305 302 299 298 297 295 294 294 295 295 295 296 295 294 293 292 290 289 288 287 286 286 286 285 284 282 282 281 280 278 274 272 271
308 310 312 314 315 318 319 319 319 319 319 319 319 318 318 317 316 316 315 315 315 315 315 315 316 316 317 317 317 317 317 317 317 317 317 317 316 315 315 314 314 314 313 312 311 310 310 309 308 307 307 306 305 303 300 298 297 296 295 294 294 295 295 295 293 291 290 289 287 287 286 286 287 287 286 286 285 284 282 280 278 276 274 272 272
309 311 313 314 316 318 318 318 319 319 320 320 319 318 317 316 316 315 314 314 314 314 314 315 315 315 316 316 316 317 317 317 317 318 318 317 317 316 316 315 315 314 314 313 312 311 310 310 308 307 307 306 305 303 301 299 299 298 296 295 295 295 295 294 291 289 288 287 286 285 285 285 286 286 286 286 286 285 283 280 278 277 275 275 274
309 311 313 315 316 317 318 318 319 319 320 319 318 317 316 315 314 314 314 314 314 314 315 315 315 315 315 316 316 317 317 318 318 318 319 318 317 317 317 316 316 315 315 315 314 312 312 312 310 308 307 306 304 303 302 301 301 301 299 297 296 296 295 293 290 288 287 287 286 285 285 284 283 283 284 284 282 280 278 278 278 279 280 281 280
309 311 313 314 315 317 317 318 319 319 319 319 317 316 315 314 314 315 315 314 314 315 315 314 315 315 315 316 317 318 318 318 318 319 320 319 319 319 319 318 318 317 317 317 316 314 314 314 313 310 308 307 305 304 303 303 303 302 301 299 298 297 295 292 290 289 288 287 287 286 285 283 282 281 280 279 278 277 276 275 275 277 279 278 275
309 311 312 314 316 316 317 318 319 319 319 317 316 316 314 313 314 315 315 314 314 314 314 314 314 314 315 317 318 318 319 318 318 319 319 319 319 319 319 319 318 318 318 318 318 317 316 316 315 313 310 308 306 305 305 305 304 302 301 300 299 298 295 293 291 291 290 289 289 288 286 284 281 279 277 275 275 275 274 273 272 271 268 266 267
309 310 312 314 315 316 317 317 318 318 318 317 316 315 314 314 315 315 315 314 314 314 314 314 314 315 316 317 318 318 318 318 318 318 319 318 318 318 318 318 318 318 318 319 319 318 318 318 317 315 313 310 308 307 306 306 304 302 301 300 299 297 295 293 292 292 292 292 291 290 289 286 283 280 277 274 272 271 271 271 271 268 266 268 271
308 310 312 314 314 316 316 316 317 318 317 317 316 316 315 314 314 315 314 313 313 313 313 313 314 315 315 316 317 317 316 317 317 317 318 317 317 317 318 318 317 317 317 318 319 318 318 318 318 316 315 313 310 309 308 306 305 303 301 300 299 297 296 294 292 292 292 292 292 291 290 288 285 283 279 276 273 271 270 271 270 269 269 272 274
307 310 312 313 314 315 315 315 316 317 317 317 316 316 315 314 314 314 313 313 313 313 313 313 314 314 315 315 316 316 316 316 316 316 316 316 316 317 318 318 317 317 316 317 318 318 317 317 316 316 316 314 313 312 310 307 305 303 302 301 299 298 297 295 294 294 293 291 290 289 288 286 285 283 281 279 276 273 270 268 267 267 267 270 272
307 309 311 312 313 314 314 315 316 317 318 317 316 316 316 314 314 314 313 313 313 313 313 313 313 314 314 315 315 315 315 315 315 315 315 315 316 316 317 318 317 316 316 317 317 317 317 316 315 315 315 314 314 314 312 308 306 305 304 302 299 299 298 297 296 296 294 290 287 285 283 283 283 282 282 281 280 278 275 272 270 268 267 268 269
307 309 311 312 313 313 314 315 315 317 317 316 315 316 316 315 315 314 313 314 314 314 314 313 313 314 314 314 315 315 314 314 314 314 314 314 315 316 316 317 316 316 316 317 317 317 317 316 315 315 314 313 314 314 311 308 307 306 304 302 301 301 300 298 297 296 294 291 289 287 285 284 284 284 283 283 282 281 278 275 272 270 268 268 268
308 310 311 312 312 313 314 314 314 316 316 315 315 315 315 317 316 313 313 314 314 314 314 313 313 314 314 314 314 314 314 314 313 313 313 314 314 315 316 316 315 314 314 315 315 316 315 313 313 313 312 312 312 311 309 307 306 305 304 302 301 300 298 296 295 293 292 290 290 290 289 289 289 289 288 287 285 282 279 276 272 269 267 266 265
308 310 311 311 311 312 313 313 313 314 314 313 314 314 315 317 316 313 313 314 313 314 314 313 314 314 313 313 313 313 312 312 312 312 312 313 313 314 314 315 314 313 313 313 313 313 313 312 311 312 312 312 313 312 310 309 308 307 306 306 304 301 299 297 296 293 291 290 291 292 292 291 290 288 286 285 283 281 279 276 273 270 268 266 265
308 309 310 310 310 311 312 312 312 312 312 312 312 312 314 316 315 313 312 313 313 314 313 313 313 312 312 312 312 312 311 311 310 310 311 312 313 314 313 313 313 313 312 312 311 311 311 310 310 311 312 313 313 313 313 312 312 310 309 307 305 304 303 301 299 297 296 297 298 297 295 292 289 285 282 279 277 275 273 272 271 269 268 267 267
Height
3117 3116 3116 3115 3115 3114 3114 3113 3112 3112 3111 3110 3109 3109 3108 3107 3106 3105 3104 3103 3102 3101 3100 3099 3097 3096 3095 3094 3093 3091 3090 3088 3087 3086 3084 3083 3081 3080 3078 3076 3075 3073 3072 3070 3069 3068 3066 3064 3063 3062 3060 3059 3057 3056 3055 3054 3054 3053 3053 3052 3051 3050 3049 3048 3048 3047 3047 3047 3047 3048 3047 3046 3046 3046 3046 3046 3046 3045 3046 3045 3045 3045 3046 3046 3046
3115 3115 3114 3114 3113 3112 3112 3111 3110 3110 3109 3108 3107 3106 3106 3105 3104 3103 3101 3100 3099 3098 3097 3095 3094 3092 3091 3090 3088 3087 3085 3084 3083 3082 3081 3079 3077 3075 3074 3072 3070 3069 3067 3066 3064 3062 3061 3059 3057 3056 3054 3052 3051 3049 3048 3047 3046 3046 3045 3044 3043 3043 3042 3041 3041 3040 3039 3039 3039 3040 3040 3039 3039 3039 3038 3039 3039 3039 3039 3039 3039 3039 3039 3040 3040
3113 3113 3112 3112 3111 3110 3110 3109 3108 3107 3106 3105 3104 3104 3103 3102 3101 3099 3098 3097 3096 3094 3093 3092 3090 3088 3087 3085 3084 3082 3081 3079 3078 3077 3076 3075 3073 3071 3069 3067 3066 3064 3062 3061 3059 3057 3055 3053 3052 3050 3048 3046 3044 3043 3041 3040 3039 3038 3037 3036 3035 3034 3033 3033 3033 3032 3032 3032 3031 3031 3032 3032 3032 3032 3031 3031 3032 3032 3032 3032 3032 3032 3032 3033 3033
3111 3110 3110 3109 3109 3108 3107 3106 3105 3105 3104 3102 3101 3100 3100 3099 3097 3096 3095 3093 3092 3090 3089 3087 3085 3083 3082 3080 3078 3077 3075 3074 3073 3072 3071 3068 3067 3065 3064 3062 3060 3059 3057 3055 3053 3051 3050 3048 3046 3044 3042 3040 3038 3036 3035 3033 3032 3031 3030 3029 3027 3026 3025 3024 3024 3024 3023 3024 3023 3023 3023 3023 3023 3025 3024 3024 3024 3024 3025 3025 3025 3025 3026 3026 3026
3109 3108 3108 3107 3106 3105 3104 3103 3102 3101 3100 3099 3098 3097 3096 3095 3093 3092 3091 3090 3088 3086 3084 3082 3080 3078 3076 3074 3072 3070 3069 3068 3067 3066 3065 3062 3060 3059 3057 3055 3053 3052 3050 3048 3046 3045 3043 3041 3039 3037 3035 3034 3032 3030 3028 3026 3025 3024 3023 3021 3020 3019 3018 3017 3016 3015 3015 3015 3015 3014 3015 3014 3014 3016 3016 3016 3017 3016 3016 3017 3018 3018 3018 3019 3019
3106 3106 3105 3104 3103 3102 3100 3099 3098 3097 3096 3095 3094 3093 3092 3091 3089 3088 3087 3085 3084 3082 3079 3076 3074 3072 3070 3068 3066 3064 3063 3062 3061 3060 3058 3055 3053 3052 3050 3048 3046 3044 3042 3040 3039 3037 3035 3033 3031 3030 3028 3026 3025 3023 3021 3020 3018 3017 3016 3014 3013 3012 3011 3010 3009 3008 3007 3006 3006 3006 3006 3006 3006 3007 3007 3007 3009 3009 3009 3009 3010 3010 3011 3011 3012
3103 3102 3102 3101 3100 3099 3098 3097 3096 3094 3093 3092 3091 3089 3088 3087 3085 3084 3082 3081 3079 3077 3074 3071 3069 3067 3065 3062 3061 3059 3057 3056 3056 3053 3050 3048 3047 3045 3043 3041 3039 3037 3035 3033 3031 3029 3027 3025 3023 3021 3020 3018 3017 3015 3014 3012 3010 3009 3008 3007 3006 3005 3004 3003 3002 3001 3000 2999 2999 2998 2997 2998 2998 2998 2998 2998 2999 3001 3002 3002 3002 3002 3003 3003 3004
3100 3099 3098 3098 3097 3097 3096 3094 3093 3091 3090 3089 3087 3086 3085 3083 3081 3080 3078 3076 3074 3071 3069 3066 3064 3062 3059 3057 3055 3054 3051 3050 3049 3047 3044 3042 3041 3039 3037 3035 3032 3030 3028 3025 3023 3021 3019 3017 3016 3014 3012 3010 3009 3007 3005 3004 3002 3001 3001 2999 2998 2997 2997 2996 2995 2995 2994 2993 2992 2991 2990 2990 2990 2990 2990 2990 2990 2991 2994 2995 2994 2995 2995 2995 2996
3097 3096 3096 3095 3095 3094 3093 3091 3089 3088 3087 3086 3084 3083 3081 3079 3078 3076 3074 3072 3069 3067 3064 3062 3059 3057 3054 3052 3050 3048 3046 3044 3042 3040 3038 3036 3034 3033 3031 3029 3026 3024 3021 3019 3016 3014 3013 3011 3009 3007 3005 3003 3001 2999 2997 2995 2994 2993 2992 2991 2991 2990 2989 2988 2988 2988 2987 2986 2986 2985 2984 2983 2982 2982 2982 2982 2982 2981 2984 2986 2987 2988 2988 2988 2989
3094 3093 3093 3092 3091 3090 3089 3088 3086 3085 3084 3082 3081 3079 3077 3075 3073 3071 3069 3067 3064 3062 3059 3057 3055 3052 3050 3047 3045 3043 3040 3038 3035 3033 3031 3029 3027 3025 3024 3022 3020 3017 3015 3013 3010 3008 3006 3004 3002 3000 2998 2996 2993 2992 2990 2988 2986 2985 2984 2984 2983 2982 2981 2981 2980 2980 2980 2980 2979 2978 2978 2977 2976 2975 2974 2974 2974 2974 2974 2977 2978 2979 2980 2981 2981
3091 3090 3089 3088 3087 3087 3086 3085 3084 3082 3080 3078 3076 3075 3073 3071 3068 3066 3064 3061 3059 3056 3054 3052 3050 3047 3045 3042 3039 3037 3034 3031 3028 3026 3024 3021 3018 3017 3015 3014 3012 3010 3008 3006 3004 3002 3000 2997 2995 2993 2991 2988 2986 2984 2983 2981 2979 2978 2977 2976 2975 2974 2973 2973 2973 2973 2972 2972 2972 2971 2971 2970 2970 2969 2968 2967 2967 2966 2966 2967 2969 2970 2971 2974 2975
3087 3086 3085 3084 3084 3083 3083 3082 3080 3078 3076 3074 3072 3070 3068 3066 3063 3061 3059 3056 3054 3051 3049 3047 3044 3042 3039 3036 3033 3031 3028 3024 3021 3019 3016 3013 3011 3009 3007 3005 3003 3001 3000 2998 2997 2994 2992 2990 2987 2985 2983 2980 2978 2976 2975 2973 2972 2971 2970 2968 2967 2966 2965 2965 2965 2965 2964 2964 2964 2964 2964 2963 2963 2962 2962 2961 2960 2959 2959 2959 2960 2961 2961 2965 2967
3082 3082 3081 3081 3081 3080 3079 3077 3075 3073 3072 3070 3068 3065 3063 3060 3058 3055 3053 3050 3048 3046 3043 3041 3038 3035 3032 3029 3026 3023 3020 3017 3014 3011 3009 3006 3003 3001 2999 2996 2994 2992 2991 2989 2988 2985 2983 2981 2979 2977 2975 2972 2970 2968 2966 2965 2963 2962 2961 2960 2959 2958 2958 2957 2957 2957 2957 2957 2957 2956 2956 2956 2955 2955 2955 2954 2954 2953 2952 2952 2953 2952 2952 2955 2958
3078 3078 3077 3077 3077 3076 3074 3073 3071 3069 3067 3065 3063 3060 3058 3055 3052 3050 3047 3044 3042 3040 3037 3034 3031 3028 3025 3022 3018 3015 3012 3009 3007 3004 3002 2999 2996 2994 2992 2989 2986 2984 2982 2980 2978 2976 2974 2972 2970 2968 2966 2963 2961 2959 2958 2956 2955 2953 2952 2951 2951 2950 2950 2950 2950 2950 2949 2949 2949 2949 2949 2948 2948 2947 2947 2947 2947 2946 2945 2945 2945 2944 2944 2946 2948
3074 3074 3074 3073 3072 3071 3069 3067 3065 3063 3061 3059 3057 3054 3052 3049 3046 3044 3041 3039 3037 3034 3031 3028 3024 3021 3018 3014 3011 3008 3005 3002 3000 2997 2994 2992 2989 2986 2984 2982 2979 2976 2974 2971 2969 2966 2964 2962 2960 2958 2956 2954 2952 2950 2949 2947 2946 2945 2944 2943 2943 2943 2942 2943 2943 2943 2942 2942 2942 2942 2941 2941 2940 2940 2939 2939 2939 2939 2938 2938 2937 2936 2937 2938 2939
3072 3071 3070 3069 3067 3066 3064 3062 3060 3057 3055 3053 3051 3048 3046 3043 3041 3038 3035 3033 3030 3027 3024 3020 3017 3013 3010 3007 3004 3001 2998 2995 2993 2990 2987 2985 2982 2979 2976 2974 2971 2968 2965 2962 2959 2957 2954 2952 2950 2948 2946 2945 2943 2941 2940 2939 2938 2937 2936 2936 2936 2935 2935 2935 2935 2935 2935 2935 2935 2934 2934 2933 2933 2932 2931 2931 2931 2931 2931 2930 2930 2929 2929 2930 2931
3069 3068 3066 3064 3063 3061 3059 3056 3054 3052 3050 3047 3045 3042 3040 3037 3035 3032 3029 3027 3024 3020 3017 3013 3009 3006 3003 3000 2997 2994 2991 2988 2986 2983 2980 2978 2975 2972 2969 2966 2963 2960 2957 2954 2951 2948 2945 2942 2940 2938 2937 2936 2934 2933 2932 2931 2930 2930 2929 2929 2929 2929 2929 2929 2928 2928 2928 2928 2927 2927 2926 2926 2925 2924 2924 2924 2923 2923 2923 2923 2922 2922 2921 2922 2922
3066 3064 3062 3060 3058 3056 3054 3052 3050 3047 3045 3042 3039 3037 3034 3031 3028 3026 3023 3020 3017 3013 3009 3006 3003 3000 2997 2994 2991 2988 2985 2982 2979 2977 2974 2971 2969 2966 2962 2960 2956 2953 2950 2947 2944 2940 2937 2934 2932 2930 2928 2927 2927 2926 2925 2924 2923 2923 2923 2923 2923 2922 2922 2922 2922 2921 2921 2920 2920 2920 2919 2918 2917 2916 2916 2916 2916 2916 2916 2915 2915 2915 2914 2914 2915
3062 3060 3058 3056 3054 3051 3049 3047 3045 3042 3040 3037 3034 3031 3028 3026 3023 3020 3016 3013 3010 3006 3002 2999 2996 2993 2990 2988 2985 2982 2979 2976 2973 2971 2968 2965 2963 2959 2956 2953 2950 2947 2944 2940 2937 2934 2931 2928 2925 2923 2921 2920 2920 2919 2919 2918 2917 2917 2917 2917 2917 2917 2917 2916 2916 2915 2915 2914 2914 2913 2912 2912 2911 2910 2909 2909 2908 2908 2908 2908 2908 2908 2907 2908 2908
3057 3055 3053 3051 3049 3047 3044 3042 3039 3037 3034 3031 3029 3026 3023 3020 3017 3014 3011 3007 3004 3000 2997 2994 2991 2988 2985 2982 2979 2976 2973 2971 2968 2965 2962 2959 2957 2954 2951 2947 2944 2941 2938 2934 2931 2928 2925 2922 2919 2917 2915 2915 2914 2914 2913 2912 2912 2912 2912 2911 2911 2911 2911 2911 2910 2909 2909 2908 2907 2906 2906 2905 2904 2903 2903 2902 2901 2901 2901 2901 2900 2901 2901 2901 2901
3052 3050 3048 3046 3044 3041 3039 3037 3034 3031 3028 3026 3023 3020 3017 3014 3011 3008 3005 3002 2998 2994 2991 2988 2985 2982 2980 2977 2974 2971 2968 2965 2962 2959 2956 2954 2951 2948 2945 2942 2938 2935 2932 2928 2925 2922 2919 2916 2914 2912 2911 2910 2909 2909 2908 2907 2907 2907 2906 2906 2906 2905 2905 2905 2904 2903 2902 2901 2901 2900 2900 2899 2898 2897 2896 2895 2895 2894 2894 2894 2894 2894 2894 2894 2894
3047 3045 3043 3041 3038 3036 3034 3031 3028 3026 3023 3020 3018 3015 3011 3008 3005 3002 2999 2995 2991 2988 2985 2982 2979 2976 2974 2971 2968 2965 2962 2959 2956 2953 2951 2948 2945 2942 2939 2936 2932 2928 2925 2922 2919 2916 2913 2911 2909 2908 2907 2906 2905 2904 2903 2903 2902 2902 2902 2901 2901 2900 2899 2899 2898 2897 2896 2895 2894 2894 2893 2893 2891 2891 2890 2889 2888 2887 2886 2887 2887 2887 2887 2887 2888
3042 3039 3037 3035 3033 3030 3028 3025 3023 3020 3017 3015 3012 3009 3006 3002 2999 2995 2992 2989 2985 2982 2979 2976 2973 2971 2968 2965 2962 2959 2956 2954 2951 2948 2945 2943 2939 2936 2933 2929 2926 2922 2919 2916 2913 2911 2908 2906 2905 2903 2902 2901 2900 2900 2899 2898 2898 2897 2897 2896 2895 2895 2894 2893 2892 2891 2890 2889 2888 2888 2887 2886 2885 2884 2883 2882 2881 2880 2880 2880 2880 2880 2880 2881 2881
3036 3034 3032 3030 3027 3025 3022 3019 3017 3014 3011 3009 3005 3002 2999 2996 2992 2989 2986 2982 2979 2976 2973 2970 2968 2965 2962 2959 2956 2953 2951 2948 2946 2943 2941 2937 2934 2931 2928 2924 2921 2917 2914 2911 2908 2906 2904 2902 2900 2899 2898 2897 2896 2895 2894 2894 2893 2892 2891 2891 2890 2889 2888 2887 2885 2884 2883 2882 2881 2881 2880 2879 2877 2877 2876 2875 2874 2873 2873 2872 2873 2873 2873 2874 2874
3031 3029 3026 3024 3021 3019 3016 3013 3011 3008 3005 3002 2999 2996 2993 2989 2986 2982 2979 2975 2972 2969 2967 2964 2962 2958 2956 2953 2950 2948 2946 2943 2941 2938 2935 2932 2929 2926 2922 2919 2916 2912 2909 2906 2903 2901 2899 2897 2896 2895 2893 2893 2892 2891 2890 2889 2888 2887 2886 2884 2883 2882 2881 2880 2879 2877 2876 2875 2874 2873 2872 2871 2869 2869 2869 2868 2867 2866 2866 2866 2866 2866 2867 2867 2867
3026 3024 3021 3019 3016 3013 3011 3008 3005 3003 3000 2997 2993 2990 2986 2983 2979 2975 2972 2968 2965 2963 2961 2958 2955 2953 2950 2948 2945 2943 2940 2938 2935 2932 2929 2926 2923 2919 2916 2913 2910 2907 2905 2902 2899 2897 2895 2893 2892 2890 2889 2888 2886 2885 2884 2883 2882 2880 2879 2878 2876 2875 2874 2873 2871 2870 2869 2868 2866 2865 2864 2863 2862 2861 2861 2860 2860 2859 2859 2860 2860 2860 2860 2861 2861
3021 3019 3016 3013 3011 3008 3005 3003 3000 2997 2994 2991 2987 2983 2980 2976 2972 2968 2965 2963 2960 2958 2955 2952 2950 2948 2945 2943 2940 2938 2935 2932 2929 2926 2923 2920 2917 2914 2911 2908 2906 2903 2901 2899 2896 2894 2892 2890 2888 2886 2885 2883 2882 2880 2879 2877 2875 2874 2872 2871 2869 2868 2867 2865 2864 2863 2862 2860 2859 2858 2857 2856 2855 2854 2854 2854 2853 2853 2854 2854 2855 2855 2855 2855 2855
3017 3014 3011 3009 3006 3003 3000 2998 2995 2992 2988 2984 2980 2977 2973 2970 2966 2963 2960 2957 2955 2953 2950 2948 2945 2942 2940 2937 2935 2932 2929 2926 2924 2921 2918 2915 2912 2909 2906 2904 2902 2900 2897 2895 2893 2891 2889 2887 2885 2882 2881 2879 2877 2875 2874 2872 2870 2868 2866 2865 2863 2862 2861 2859 2858 2857 2855 2854 2853 2852 2851 2850 2850 2849 2849 2848 2848 2848 2849 2849 2850 2850 2850 2850 2850
3012 3009 3006 3004 3001 2998 2995 2992 2989 2986 2982 2978 2974 2971 2967 2964 2961 2957 2955 2952 2950 2948 2945 2943 2940 2937 2934 2932 2929 2926 2923 2921 2918 2915 2912 2909 2907 2905 2902 2900 2898 2896 2894 2891 2889 2887 2885 2883 2881 2879 2877 2875 2873 2871 2869 2867 2865 2863 2861 2860 2858 2857 2855 2854 2853 2851 2850 2849 2848 2847 2846 2845 2845 2844 2844 2843 2844 2844 2844 2845 2845 2845 2844 2844 2845
3007 3004 3001 2998 2995 2992 2989 2986 2983 2980 2976 2972 2969 2965 2962 2959 2955 2952 2950 2947 2945 2942 2940 2937 2934 2932 2929 2926 2923 2921 2918 2916 2913 2910 2908 2905 2903 2901 2899 2897 2894 2892 2890 2887 2885 2883 2881 2879 2877 2875 2873 2871 2869 2867 2865 2862 2860 2858 2856 2855 2854 2852 2851 2849 2847 2846 2845 2844 2843 2842 2841 2840 2840 2839 2839 2839 2839 2839 2839 2840 2840 2839 2839 2839 2839
3001 2998 2995 2992 2989 2986 2983 2980 2977 2973 2970 2966 2963 2959 2956 2953 2950 2947 2945 2942 2940 2937 2934 2932 2929 2926 2924 2921 2919 2916 2913 2911 2909 2906 2904 2902 2899 2897 2895 2893 2891 2888 2886 2883 2881 2879 2877 2875 2873 2871 2869 2867 2865 2863 2860 2858 2856 2854 2851 2850 2849 2847 2846 2844 2843 2842 2841 2840 2839 2837 2836 2835 2835 2834 2834 2834 2834 2834 2834 2834 2834 2834 2834 2834 2834
2995 2992 2989 2986 2983 2980 2977 2974 2971 2967 2964 2960 2957 2954 2950 2947 2944 2942 2939 2937 2934 2932 2929 2927 2924 2922 2919 2917 2914 2912 2909 2907 2905 2902 2900 2898 2895 2893 2891 2889 2887 2884 2882 2879 2877 2875 2872 2870 2868 2866 2864 2862 2861 2858 2856 2854 2852 2850 2847 2845 2843 2842 2840 2839 2837 2836 2836 2835 2834 2833 2832 2831 2830 2829 2829 2828 2828 2828 2828 2828 2828 2828 2828 2828 2829
2989 2986 2983 2981 2977 2974 2971 2968 2965 2962 2958 2955 2951 2948 2945 2942 2939 2937 2934 2932 2929 2927 2925 2922 2920 2917 2915 2912 2910 2907 2905 2903 2900 2898 2896 2894 2891 2889 2887 2885 2883 2880 2878 2875 2873 2870 2868 2866 2864 2862 2860 2858 2856 2854 2852 2850 2848 2846 2843 2841 2838 2837 2835 2834 2832 2831 2830 2829 2829 2828 2827 2827 2826 2825 2824 2823 2823 2823 2823 2823 2823 2823 2823 2823 2823
2984 2981 2978 2975 2972 2969 2966 2963 2960 2956 2953 2949 2946 2943 2940 2937 2934 2932 2930 2927 2925 2923 2920 2918 2915 2913 2911 2908 2906 2903 2901 2899 2896 2894 2892 2889 2887 2885 2883 2880 2878 2876 2873 2871 2869 2866 2864 2862 2859 2857 2856 2854 2852 2849 2847 2845 2843 2842 2839 2837 2834 2832 2831 2830 2828 2827 2826 2825 2823 2822 2822 2821 2821 2821 2820 2820 2819 2818 2818 2817 2817 2817 2817 2817 2818
2979 2976 2973 2970 2967 2964 2961 2958 2955 2951 2948 2944 2941 2938 2935 2932 2930 2927 2925 2923 2921 2918 2916 2913 2911 2909 2906 2904 2902 2899 2897 2894 2892 2890 2888 2885 2883 2881 2878 2876 2874 2872 2869 2866 2864 2862 2860 2857 2855 2853 2851 2849 2848 2845 2842 2841 2839 2837 2835 2832 2830 2828 2827 2825 2824 2823 2822 2820 2819 2818 2817 2816 2816 2815 2815 2815 2814 2814 2813 2813 2813 2812 2812 2812 2812
2974 2971 2968 2965 2962 2959 2956 2952 2949 2946 2942 2939 2935 2933 2930 2927 2925 2923 2921 2919 2916 2914 2912 2909 2907 2904 2902 2900 2897 2895 2893 2891 2889 2887 2884 2882 2879 2877 2874 2872 2870 2868 2865 2862 2860 2857 2855 2853 2850 2848 2846 2845 2843 2840 2838 2836 2834 2832 2830 2827 2825 2824 2822 2821 2820 2818 2817 2816 2815 2814 2813 2812 2811 2811 2811 2810 2809 2808 2808 2808 2808 2808 2808 2808 2808
2969 2966 2963 2960 2957 2953 2950 2947 2943 2940 2937 2934 2931 2928 2925 2923 2921 2919 2916 2914 2912 2910 2907 2905 2903 2900 2898 2896 2893 2891 2889 2887 2885 2883 2880 2878 2875 2873 2870 2868 2866 2864 2861 2858 2856 2853 2851 2848 2846 2844 2841 2840 2839 2836 2833 2831 2829 2827 2825 2822 2821 2819 2818 2817 2815 2814 2812 2811 2811 2810 2809 2808 2807 2806 2806 2806 2805 2804 2803 2802 2802 2803 2803 2803 2803
2963 2960 2957 2954 2951 2947 2944 2941 2938 2936 2932 2929 2926 2923 2920 2918 2916 2914 2912 2910 2908 2905 2903 2901 2899 2897 2894 2892 2890 2887 2885 2883 2881 2879 2876 2874 2871 2869 2866 2863 2861 2859 2857 2854 2851 2849 2847 2844 2841 2839 2837 2835 2834 2832 2829 2826 2824 2822 2820 2817 2815 2814 2813 2812 2811 2809 2808 2807 2806 2805 2804 2803 2802 2802 2802 2802 2801 2800 2798 2798 2797 2796 2796 2797 2798
2957 2954 2952 2949 2945 2942 2939 2936 2933 2931 2927 2924 2921 2918 2916 2914 2912 2910 2908 2906 2904 2902 2900 2898 2895 2893 2891 2888 2886 2884 2881 2879 2877 2874 2872 2869 2867 2864 2862 2859 2856 2854 2852 2850 2847 2844 2843 2841 2837 2835 2832 2830 2829 2827 2825 2822 2819 2818 2815 2812 2810 2809 2808 2807 2805 2804 2803 2802 2801 2800 2800 2798 2798 2797 2797 2797 2796 2795 2794 2793 2792 2791 2790 2791 2793
2952 2949 2946 2943 2940 2937 2934 2932 2929 2926 2923 2920 2917 2914 2912 2909 2908 2906 2904 2902 2900 2898 2896 2894 2891 2889 2887 2884 2882 2880 2877 2875 2872 2870 2868 2865 2862 2860 2857 2855 2852 2849 2847 2845 2842 2839 2838 2836 2833 2830 2828 2826 2823 2822 2820 2817 2815 2813 2811 2808 2805 2804 2803 2801 2800 2798 2797 2796 2795 2795 2795 2794 2793 2792 2792 2792 2792 2790 2788 2787 2786 2785 2784 2786 2787
2946 2943 2941 2938 2935 2933 2930 2927 2924 2921 2918 2915 2913 2910 2908 2906 2904 2903 2900 2898 2896 2894 2892 2890 2887 2885 2883 2880 2878 2875 2873 2870 2868 2866 2864 2861 2858 2855 2853 2850 2847 2845 2842 2840 2838 2835 2832 2831 2829 2826 2823 2821 2818 2816 2815 2813 2810 2808 2806 2804 2801 2799 2798 2796 2794 2792 2791 2790 2790 2789 2789 2789 2788 2787 2786 2786 2786 2785 2784 2782 2780 2779 2779 2780 2780
2941 2938 2936 2934 2931 2928 2925 2922 2919 2917 2914 2912 2909 2907 2905 2902 2900 2899 2896 2894 2892 2890 2888 2886 2883 2881 2879 2876 2874 2871 2868 2866 2863 2861 2859 2857 2854 2851 2848 2845 2842 2840 2837 2835 2833 2830 2827 2826 2824 2821 2818 2816 2813 2810 2809 2808 2806 2803 2801 2799 2796 2794 2793 2790 2787 2786 2785 2784 2784 2783 2783 2783 2782 2781 2781 2780 2780 2779 2779 2777 2776 2775 2775 2775 2773
2936 2934 2932 2929 2926 2923 2920 2917 2915 2913 2910 2908 2906 2903 2901 2899 2896 2895 2893 2890 2888 2886 2884 2882 2880 2877 2875 2872 2870 2867 2864 2862 2859 2857 2855 2852 2850 2847 2844 2841 2838 2835 2833 2830 2828 2825 2823 2821 2819 2817 2814 2811 2808 2805 2803 2802 2801 2798 2796 2794 2792 2790 2788 2785 2782 2780 2780 2779 2778 2777 2777 2777 2777 2776 2775 2775 2774 2774 2773 2772 2772 2772 2770 2768 2767
2932 2929 2927 2924 2921 2918 2916 2913 2910 2909 2906 2904 2902 2899 2897 2895 2892 2891 2889 2887 2885 2882 2880 2878 2876 2873 2871 2868 2866 2863 2861 2858 2856 2853 2851 2848 2846 2843 2840 2837 2834 2831 2828 2826 2824 2821 2818 2816 2814 2812 2810 2807 2804 2801 2799 2797 2795 2793 2791 2789 2787 2785 2783 2780 2777 2775 2774 2773 2772 2771 2770 2770 2770 2769 2769 2769 2768 2768 2767 2766 2766 2766 2763 2761 2761
2927 2924 2922 2920 2917 2914 2912 2909 2906 2904 2902 2900 2898 2895 2893 2891 2889 2887 2885 2883 2881 2879 2876 2874 2872 2869 2867 2864 2862 2860 2857 2854 2852 2849 2847 2844 2841 2839 2836 2833 2830 2827 2824 2821 2819 2816 2813 2811 2808 2806 2805 2803 2800 2797 2795 2792 2789 2787 2785 2783 2781 2779 2778 2776 2773 2771 2770 2768 2766 2765 2764 2763 2763 2762 2762 2762 2761 2761 2761 2761 2760 2759 2757 2756 2756
2922 2920 2917 2915 2912 2910 2907 2904 2902 2900 2898 2896 2893 2891 2889 2887 2885 2883 2881 2879 2877 2875 2873 2870 2868 2865 2863 2860 2858 2856 2853 2851 2848 2845 2843 2840 2837 2834 2832 2829 2826 2822 2819 2817 2814 2812 2809 2806 2804 2801 2799 2798 2796 2793 2791 2788 2784 2782 2780 2778 2776 2774 2772 2770 2768 2767 2765 2763 2761 2760 2758 2757 2756 2755 2755 2754 2754 2755 2755 2754 2754 2753 2752 2750 2750
2917 2915 2913 2910 2908 2905 2903 2900 2898 2896 2894 2891 2889 2887 2886 2883 2881 2879 2877 2875 2873 2871 2869 2866 2864 2861 2859 2856 2854 2852 2849 2847 2844 2841 2839 2836 2833 2830 2827 2824 2821 2818 2815 2812 2810 2807 2804 2801 2799 2796 2794 2792 2791 2789 2786 2783 2780 2777 2775 2773 2770 2768 2767 2764 2763 2761 2760 2758 2756 2755 2753 2751 2750 2749 2748 2748 2747 2747 2747 2747 2747 2747 2746 2744 2744
2912 2910 2908 2906 2903 2901 2899 2896 2894 2892 2890 2887 2885 2883 2881 2879 2877 2875 2873 2871 2869 2867 2865 2862 2860 2857 2855 2852 2850 2847 2845 2843 2840 2837 2835 2832 2829 2826 2823 2820 2817 2814 2810 2808 2804 2802 2799 2796 2793 2791 2788 2786 2785 2784 2781 2778 2775 2772 2770 2767 2765 2763 2761 2759 2757 2755 2753 2751 2749 2748 2747 2746 2745 2744 2743 2742 2741 2741 2741 2740 2740 2739 2738 2738 2737
2908 2905 2903 2901 2899 2896 2894 2892 2890 2888 2886 2883 2881 2879 2877 2875 2873 2871 2869 2867 2865 2863 2861 2858 2855 2853 2851 2848 2846 2843 2841 2838 2836 2833 2831 2828 2825 2822 2819 2816 2813 2809 2806 2803 2800 2797 2794 2791 2788 2786 2783 2780 2779 2778 2776 2773 2770 2768 2765 2762 2760 2759 2756 2754 2752 2749 2746 2744 2743 2742 2741 2740 2739 2738 2737 2736 2735 2734 2733 2733 2733 2732 2731 2730 2730
2903 2901 2898 2896 2894 2892 2890 2888 2886 2884 2882 2879 2877 2875 2873 2871 2869 2867 2865 2863 2861 2859 2857 2854 2851 2849 2846 2844 2842 2839 2836 2834 2831 2829 2827 2824 2822 2818 2815 2812 2809 2806 2802 2798 2795 2793 2790 2786 2783 2781 2778 2775 2772 2771 2769 2767 2765 2762 2759 2756 2754 2752 2750 2749 2747 2744 2741 2739 2738 2737 2736 2735 2733 2732 2730 2729 2728 2727 2726 2725 2724 2724 2723 2722 2722
2898 2896 2894 2892 2890 2888 2886 2884 2882 2880 2878 2875 2873 2871 2869 2867 2865 2863 2861 2859 2857 2854 2852 2850 2847 2845 2842 2840 2838 2835 2832 2830 2827 2824 2822 2820 2818 2815 2811 2808 2804 2801 2798 2794 2790 2787 2785 2781 2777 2774 2772 2769 2766 2763 2761 2760 2758 2756 2753 2750 2748 2745 2743 2742 2740 2737 2734 2732 2731 2730 2728 2728 2726 2725 2724 2723 2722 2721 2720 2718 2718 2717 2716 2715 2714